This is the latest recevied weather packets stored in our database for station/object HB0PJ-13. If no packets are shown the sender has not sent any weather packets the latest 10 day(s).
| Time | Temp. | Humidity | Pressure | Rain* | Wind** | Luminosity | Snow |
|---|---|---|---|---|---|---|---|
| 1777485517 | 22.22° C | 38% | 962.2 hPa | - | - | 86 W/m² | - |
| 1777485397 | 22.22° C | 40% | 962.2 hPa | - | - | 93 W/m² | - |
| 1777485277 | 22.22° C | 39% | 962.2 hPa | - | - | 110 W/m² | - |
| 1777485158 | 22.78° C | 41% | 962.1 hPa | - | - | 105 W/m² | - |
| 1777485038 | 22.78° C | 40% | 962 hPa | - | - | 103 W/m² | - |
| 1777484917 | 23.89° C | 40% | 962.1 hPa | - | - | 81 W/m² | - |
| 1777484677 | 24.44° C | 40% | 962.1 hPa | - | - | 121 W/m² | - |
| 1777484557 | 24.44° C | 40% | 962.1 hPa | - | - | 133 W/m² | - |
| 1777484437 | 24.44° C | 39% | 961.9 hPa | - | - | 92 W/m² | - |
| 1777484317 | 25° C | 40% | 962.1 hPa | - | - | 235 W/m² | - |
| 1777484197 | 25° C | 42% | 962.1 hPa | - | - | 251 W/m² | - |
| 1777484077 | 25° C | 42% | 962.1 hPa | - | - | 264 W/m² | - |
| 1777483957 | 24.44° C | 43% | 962 hPa | - | - | 268 W/m² | - |
| 1777483837 | 24.44° C | 41% | 962.1 hPa | - | - | 303 W/m² | - |
| 1777483717 | 23.89° C | 42% | 962 hPa | - | - | 293 W/m² | - |
| 1777483477 | 23.33° C | 43% | 961.9 hPa | - | - | 231 W/m² | - |
| 1777483357 | 22.78° C | 46% | 961.9 hPa | - | - | 124 W/m² | - |
| 1777483237 | 22.78° C | 47% | 962 hPa | - | - | 92 W/m² | - |
| 1777483117 | 21.67° C | 47% | 961.9 hPa | - | - | 86 W/m² | - |
| 1777482877 | 20.56° C | 51% | 961.9 hPa | - | - | 196 W/m² | - |
| 1777482637 | 19.44° C | 53% | 961.8 hPa | - | - | 75 W/m² | - |
| 1777482517 | 18.89° C | 54% | 961.8 hPa | - | - | 87 W/m² | - |
| 1777482397 | 18.33° C | 54% | 961.9 hPa | - | - | 130 W/m² | - |
| 1777482277 | 18.33° C | 54% | 961.8 hPa | - | - | 45 W/m² | - |
| 1777482157 | 18.89° C | 54% | 961.8 hPa | - | - | 21 W/m² | - |
* Rain since midnight (hover to see other rain measurements)
** Current wind speed in m/s (hover to see current wind gust speed)